When you browse on this site, cookies collect data to enhance your experience and personalize the content and advertising you see.
Visit our Privacy Policy to learn more. By continuing to use the site, you agree to this use of cookies and data.
  • In Switzerland
  • List of Countries
  • For 7 days
  • Water Temperature
  • Weather Map
  • Weather Widgets
  • user-avatar
    Login

    Hourly Weather Kurcy

    Today, 3 June, Wednesday

    Time Temperature Precipitation Wind Pressure Humidity
    00:00 +14°C° 0.8 mm 4 mps 742 mmHg 95%
    01:00 +14°C° 1.3 mm 4 mps 742 mmHg 96%
    02:00 +13°C° 1.3 mm 4 mps 742 mmHg 96%
    03:00 +13°C° 0 mm 3 mps 742 mmHg 98%
    04:00 +14°C° 0.4 mm 4 mps 742 mmHg 98%
    05:00 +14°C° 0.4 mm 4 mps 741 mmHg 98%
    06:00 +14°C° 0.4 mm 5 mps 741 mmHg 97%
    07:00 +14°C° 0.6 mm 4 mps 741 mmHg 97%
    08:00 +14°C° 0.6 mm 4 mps 741 mmHg 96%
    09:00 +16°C° 0 mm 3 mps 742 mmHg 95%
    10:00 +16°C° 0.5 mm 3 mps 741 mmHg 92%
    11:00 +17°C° 0.5 mm 3 mps 741 mmHg 90%
    12:00 +18°C° 0.5 mm 3 mps 741 mmHg 87%
    13:00 +18°C° 0.6 mm 3 mps 741 mmHg 86%
    14:00 +19°C° 0.6 mm 3 mps 741 mmHg 85%
    15:00 +19°C° 0.6 mm 3 mps 740 mmHg 84%
    16:00 +18°C° 3.5 mm 4 mps 740 mmHg 88%
    17:00 +17°C° 3.5 mm 4 mps 739 mmHg 91%
    18:00 +15°C° 3.5 mm 4 mps 738 mmHg 95%
    19:00 +14°C° 5.7 mm 4 mps 738 mmHg 96%
    20:00 +14°C° 5.7 mm 4 mps 738 mmHg 97%
    21:00 +14°C° 5.7 mm 4 mps 737 mmHg 97%
    22:00 +13°C° 0.9 mm 4 mps 737 mmHg 97%
    23:00 +13°C° 0.9 mm 4 mps 736 mmHg 97%

    Tomorrow, 4 June, Thursday

    Time Temperature Precipitation Wind Pressure Humidity
    00:00 +13°C° 0.9 mm 4 mps 736 mmHg 96%
    01:00 +12°C° 0 mm 4 mps 737 mmHg 96%
    02:00 +12°C° 0 mm 4 mps 737 mmHg 97%
    03:00 +11°C° 0 mm 3 mps 738 mmHg 97%
    04:00 +12°C° 0 mm 3 mps 738 mmHg 96%
    05:00 +12°C° 0 mm 4 mps 738 mmHg 95%
    06:00 +12°C° 0 mm 4 mps 738 mmHg 94%
    07:00 +14°C° 0 mm 4 mps 739 mmHg 90%
    08:00 +15°C° 0 mm 4 mps 739 mmHg 86%
    09:00 +17°C° 0 mm 3 mps 739 mmHg 82%
    10:00 +18°C° 0.4 mm 4 mps 739 mmHg 80%
    11:00 +19°C° 0.4 mm 4 mps 739 mmHg 78%
    12:00 +19°C° 0.4 mm 5 mps 739 mmHg 76%
    13:00 +19°C° 0.7 mm 5 mps 739 mmHg 76%
    14:00 +19°C° 0.7 mm 6 mps 739 mmHg 75%
    15:00 +18°C° 0.7 mm 7 mps 740 mmHg 75%
    16:00 +19°C° 0.1 mm 6 mps 740 mmHg 77%
    17:00 +17°C° 0.1 mm 6 mps 740 mmHg 79%
    18:00 +17°C° 0.1 mm 5 mps 740 mmHg 81%
    19:00 +15°C° 0 mm 5 mps 741 mmHg 85%
    20:00 +14°C° 0 mm 4 mps 741 mmHg 88%
    21:00 +13°C° 0 mm 3 mps 742 mmHg 92%
    22:00 +13°C° 0 mm 3 mps 742 mmHg 93%
    23:00 +12°C° 0 mm 3 mps 742 mmHg 94%

    Day after tomorrow, 5 June, Friday

    Time Temperature Precipitation Wind Pressure Humidity
    00:00 +12°C° 0 mm 3 mps 742 mmHg 94%
    01:00 +11°C° 0 mm 3 mps 743 mmHg 95%
    02:00 +11°C° 0 mm 3 mps 743 mmHg 95%
    03:00 +11°C° 0 mm 3 mps 743 mmHg 95%
    04:00 +12°C° 0 mm 4 mps 743 mmHg 94%
    05:00 +12°C° 0 mm 4 mps 743 mmHg 92%
    06:00 +12°C° 0 mm 4 mps 743 mmHg 91%
    07:00 +14°C° 0 mm 5 mps 743 mmHg 87%
    08:00 +15°C° 0 mm 5 mps 744 mmHg 83%
    09:00 +16°C° 0 mm 5 mps 744 mmHg 80%
    10:00 +17°C° 0.3 mm 6 mps 744 mmHg 77%
    11:00 +19°C° 0.3 mm 6 mps 744 mmHg 75%
    12:00 +20°C° 0.3 mm 6 mps 743 mmHg 72%
    13:00 +18°C° 0.6 mm 7 mps 744 mmHg 73%
    14:00 +18°C° 0.6 mm 7 mps 744 mmHg 73%
    15:00 +18°C° 0.6 mm 7 mps 744 mmHg 74%
    16:00 +17°C° 0.4 mm 6 mps 744 mmHg 78%
    17:00 +16°C° 0.4 mm 5 mps 743 mmHg 82%
    18:00 +16°C° 0.4 mm 3 mps 743 mmHg 86%
    19:00 +14°C° 0 mm 3 mps 743 mmHg 89%
    20:00 +13°C° 0 mm 3 mps 744 mmHg 91%
    21:00 +13°C° 0 mm 3 mps 744 mmHg 94%
    22:00 +12°C° 0 mm 3 mps 744 mmHg 95%
    23:00 +12°C° 0 mm 3 mps 744 mmHg 95%

    6 June, Saturday

    Time Temperature Precipitation Wind Pressure Humidity
    00:00 +12°C° 0 mm 3 mps 744 mmHg 96%
    01:00 +12°C° 0 mm 3 mps 744 mmHg 96%
    02:00 +12°C° 0 mm 3 mps 744 mmHg 97%
    03:00 +12°C° 0 mm 4 mps 744 mmHg 97%
    04:00 +12°C° 0 mm 4 mps 744 mmHg 97%
    05:00 +13°C° 0 mm 4 mps 744 mmHg 97%
    06:00 +14°C° 0 mm 3 mps 744 mmHg 96%
    07:00 +14°C° 0 mm 4 mps 744 mmHg 95%
    08:00 +15°C° 0 mm 4 mps 745 mmHg 94%
    09:00 +17°C° 0 mm 4 mps 745 mmHg 93%
    10:00 +19°C° 0 mm 4 mps 745 mmHg 89%
    11:00 +20°C° 0 mm 4 mps 745 mmHg 85%
    12:00 +22°C° 0 mm 4 mps 746 mmHg 81%
    13:00 +22°C° 0.4 mm 4 mps 745 mmHg 80%
    14:00 +23°C° 0.4 mm 5 mps 745 mmHg 79%
    15:00 +23°C° 0.4 mm 5 mps 745 mmHg 78%
    16:00 +23°C° 0.7 mm 4 mps 745 mmHg 80%
    17:00 +23°C° 0.7 mm 4 mps 745 mmHg 82%
    18:00 +24°C° 0.7 mm 3 mps 746 mmHg 84%
    19:00 +21°C° 0.3 mm 3 mps 746 mmHg 87%
    20:00 +20°C° 0.3 mm 3 mps 746 mmHg 90%
    21:00 +19°C° 0.3 mm 3 mps 746 mmHg 92%
    22:00 +19°C° 0.3 mm 3 mps 747 mmHg 93%
    23:00 +19°C° 0.3 mm 3 mps 747 mmHg 94%

    7 June, Sunday

    Time Temperature Precipitation Wind Pressure Humidity
    00:00 +18°C° 0.3 mm 3 mps 747 mmHg 95%
    01:00 +18°C° 0 mm 3 mps 747 mmHg 95%
    02:00 +18°C° 0 mm 3 mps 747 mmHg 95%
    03:00 +18°C° 0 mm 3 mps 748 mmHg 95%
    04:00 +18°C° 0 mm 3 mps 748 mmHg 95%
    05:00 +18°C° 0 mm 3 mps 748 mmHg 94%
    06:00 +18°C° 0 mm 4 mps 748 mmHg 93%
    07:00 +19°C° 0 mm 4 mps 749 mmHg 90%
    08:00 +21°C° 0 mm 4 mps 749 mmHg 88%
    09:00 +22°C° 0 mm 4 mps 749 mmHg 85%
    10:00 +23°C° 0.2 mm 4 mps 750 mmHg 81%
    11:00 +25°C° 0.2 mm 4 mps 750 mmHg 77%
    12:00 +26°C° 0.2 mm 4 mps 750 mmHg 73%
    13:00 +26°C° 0.2 mm 4 mps 750 mmHg 71%
    14:00 +27°C° 0.2 mm 4 mps 750 mmHg 69%
    15:00 +27°C° 0.2 mm 4 mps 750 mmHg 68%
    16:00 +27°C° 0 mm 3 mps 750 mmHg 71%
    17:00 +27°C° 0 mm 3 mps 750 mmHg 75%
    18:00 +26°C° 0 mm 2 mps 750 mmHg 78%
    19:00 +25°C° 0 mm 2 mps 750 mmHg 81%
    20:00 +23°C° 0 mm 2 mps 750 mmHg 84%
    21:00 +20°C° 0 mm 2 mps 750 mmHg 87%
    22:00 +20°C° 0 mm 2 mps 750 mmHg 88%
    23:00 +20°C° 0 mm 1 mps 751 mmHg 89%

    8 June, Monday

    Time Temperature Precipitation Wind Pressure Humidity
    00:00 +20°C° 0 mm 1 mps 751 mmHg 90%
    01:00 +19°C° 0 mm 1 mps 751 mmHg 90%
    02:00 +19°C° 0 mm 1 mps 751 mmHg 90%
    03:00 +18°C° 0 mm 1 mps 751 mmHg 89%
    04:00 +19°C° 0 mm 1 mps 751 mmHg 89%
    05:00 +19°C° 0 mm 1 mps 751 mmHg 88%
    06:00 +20°C° 0 mm 1 mps 751 mmHg 87%
    07:00 +20°C° 0 mm 2 mps 751 mmHg 84%
    08:00 +23°C° 0 mm 2 mps 751 mmHg 80%
    09:00 +24°C° 0 mm 2 mps 751 mmHg 77%
    10:00 +25°C° 0 mm 2 mps 751 mmHg 73%
    11:00 +26°C° 0 mm 2 mps 751 mmHg 69%
    12:00 +27°C° 0 mm 2 mps 751 mmHg 65%
    13:00 +27°C° 0 mm 2 mps 751 mmHg 64%
    14:00 +28°C° 0 mm 2 mps 751 mmHg 64%
    15:00 +28°C° 0 mm 3 mps 751 mmHg 63%
    16:00 +28°C° 0 mm 2 mps 751 mmHg 67%
    17:00 +27°C° 0 mm 2 mps 750 mmHg 71%
    18:00 +27°C° 0 mm 2 mps 750 mmHg 75%
    19:00 +26°C° 0 mm 2 mps 750 mmHg 78%
    20:00 +24°C° 0 mm 2 mps 750 mmHg 80%
    21:00 +21°C° 0 mm 2 mps 750 mmHg 82%
    22:00 +21°C° 0 mm 2 mps 750 mmHg 83%
    23:00 +20°C° 0 mm 2 mps 751 mmHg 83%
    Show more